Regional Weather Roundup
Issued by NWS

Home | Current Version | Previous Version | Graphics & Text | Print | Product List | Glossary On
Versions: 1 2 3 4 5 6 7 8 9 10 11 12 13 14 15 16 17 18 19 20 21 22 23 24 25 26 27 28
000
ASUS45 KCYS 280710
RWRWY

WYOMING REGIONAL WEATHER ROUNDUP
NATIONAL WEATHER SERVICE CHEYENNE WY
100 AM MDT WED SEP 28 2016

NOTE:  "FAIR" INDICATES FEW OR NO CLOUDS BELOW 12,000 FEET
WITH NO SIGNIFICANT WEATHER AND/OR OBSTRUCTIONS TO VISIBILITY.

WYZ001-280800-
YELLOWSTONE NATIONAL PARK

CITY           SKY/WX    TMP DP  RH WIND       PRES   REMARKS
LK YELLOWSTONE   N/A     34  33  96 NW3       30.41R
W YELLOWSTONE  NOT AVBL

$$
WYZ002>013-054>058-071-098>099-280800-
NORTHERN WYOMING

CITY           SKY/WX    TMP DP  RH WIND       PRES   REMARKS
JACKSON        FAIR      45  37  76 N7        30.31S
CODY           FAIR      57  43  58 SW8       30.24S
GREYBULL       FAIR      54  49  83 CALM      30.18R
WORLAND        FAIR      50  44  80 S5        30.19R
SHERIDAN       FAIR      47  42  83 W3        30.17R
BUFFALO        FAIR      57  37  47 W7        30.24R
GILLETTE       FAIR      48  44  86 S7        30.18R
HULETT         FAIR      52  41  66 S6        30.18S
NEWCASTLE      FAIR      52  39  62 N8        30.18R

$$
WYZ014>020-022>026-101>103-280800-
CENTRAL WYOMING

CITY           SKY/WX    TMP DP  RH WIND       PRES   REMARKS
BIG PINEY      FAIR      41  34  76 CALM      30.34R
PINEDALE       FAIR      36  32  87 NW6       30.35S WCI  31
DUBOIS         FAIR      45  32  61 NW8       30.36F
LANDER         FAIR      54  40  59 CALM      30.25R
RIVERTON       FAIR      52  42  69 N5        30.26R
CASPER         FAIR      44  40  85 NW5       30.25S
DOUGLAS        FAIR      47  38  71 NW3       30.24R

$$
WYZ021-027>030-104>119-280800-
SOUTHERN WYOMING

CITY           SKY/WX    TMP DP  RH WIND       PRES   REMARKS
EVANSTON       FAIR      53  37  54 E5        30.32S
FORT BRIDGER   FAIR      56  37  49 W10       30.34S
ROCK SPRINGS   FAIR      50  39  66 N3        30.31R
DIXON          FAIR      48  35  60 E8        30.33S
RAWLINS        FAIR      41  29  62 CALM      30.32S
SARATOGA       FAIR      41  32  70 SE7       30.35R
LARAMIE        FAIR      40  34  79 S8        30.35S WCI  34
CHEYENNE       FAIR      50  30  46 W10       30.28S
TORRINGTON     FAIR      54  39  57 NW8       30.16S
PINE BLUFFS    FAIR      43  34  70 W6        30.23R

$$




USA.gov is the U.S. government's official web portal to all federal, state and local government web resources and services.